Location: Carbonear
(47.7333°N, 53.2500°W)
Time: 01:40:25
(UTC+00:00)

VELOX 1 - Visible Passes

Search period start: 10 December 2022 00:00
Search period end: 20 December 2022 00:00
Orbit: 621 x 637 km, 98.4° (Epoch: 09 December)

Date Brightness Start Highest point End Pass type
(mag) Time Alt. Az. Time Alt. Az. Time Alt. Az.
10 Dec ? 07:08:44 10° E 07:09:21 12° E 07:09:21 12° E visible
10 Dec ? 08:42:38 10° S 08:46:43 68° SW 08:46:43 68° SW visible
10 Dec ? 20:29:00 10° NE 20:31:38 16° E 20:34:14 10° SE visible
10 Dec ? 22:06:03 27° N 22:08:16 60° WNW 22:12:32 10° SSW visible
11 Dec ? 07:27:51 10° ESE 07:29:41 19° E 07:29:41 19° E visible
11 Dec ? 09:03:02 10° S 09:07:02 44° WSW 09:07:02 44° WSW visible
11 Dec ? 20:49:07 13° NE 20:51:59 24° E 20:55:30 10° SSE visible
11 Dec ? 22:26:29 25° NNW 22:28:22 38° WNW 22:32:22 10° SW visible
12 Dec ? 07:47:20 10° SE 07:50:00 28° E 07:50:00 28° E visible
12 Dec ? 09:23:43 10° SSW 09:27:21 28° W 09:27:21 28° W visible
12 Dec ? 21:09:31 18° NE 21:12:16 37° E 21:16:18 10° SSE visible
12 Dec ? 22:46:53 21° NNW 22:48:23 26° WNW 22:51:58 10° WSW visible
13 Dec ? 08:07:04 10° SE 08:10:19 42° ESE 08:10:19 42° ESE visible
13 Dec ? 09:44:45 10° SW 09:47:40 19° W 09:47:40 19° W visible
13 Dec ? 21:29:55 23° NNE 21:32:31 59° ESE 21:36:48 10° S visible
13 Dec ? 23:07:17 16° NW 23:08:21 18° WNW 23:11:14 10° WSW visible
14 Dec ? 08:27:02 10° SSE 08:30:38 59° SE 08:30:38 59° SE visible
14 Dec ? 10:06:35 10° WSW 10:07:59 12° W 10:07:59 12° W visible
14 Dec ? 20:14:55 10° ENE 20:15:49 11° E 20:16:41 10° E visible
14 Dec ? 21:50:19 27° NNE 21:52:41 87° WNW 21:57:02 10° SSW visible
14 Dec ? 23:27:40 12° NW 23:28:15 12° WNW 23:29:54 10° W visible
15 Dec ? 07:13:04 10° E 07:13:35 12° E 07:13:35 12° E visible
15 Dec ? 08:47:13 10° S 08:50:57 57° SW 08:50:57 57° SW visible
15 Dec ? 20:33:23 10° NE 20:36:12 17° E 20:39:00 10° SE visible
15 Dec ? 22:10:41 28° N 22:12:48 56° WNW 22:17:02 10° SSW visible
16 Dec ? 07:32:14 10° ESE 07:33:54 18° E 07:33:54 18° E visible
16 Dec ? 09:07:38 10° S 09:11:15 39° WSW 09:11:15 39° WSW visible
16 Dec ? 20:53:42 14° NE 20:56:31 26° E 21:00:09 10° SSE visible
16 Dec ? 22:31:03 25° NNW 22:32:50 36° WNW 22:36:48 10° SW visible
17 Dec ? 07:51:45 10° SE 07:54:13 27° ESE 07:54:13 27° ESE visible
17 Dec ? 09:28:21 10° SSW 09:31:34 26° WSW 09:31:34 26° WSW visible
17 Dec ? 21:14:03 19° NE 21:16:46 40° E 21:20:52 10° SSE visible
17 Dec ? 22:51:25 20° NW 22:52:50 24° WNW 22:56:19 10° WSW visible
18 Dec ? 08:11:30 10° SSE 08:14:31 40° ESE 08:14:31 40° ESE visible
18 Dec ? 09:49:27 10° SW 09:51:52 17° W 09:51:52 17° W visible
18 Dec ? 21:34:24 24° NNE 21:36:59 64° ESE 21:41:17 10° S visible
18 Dec ? 23:11:45 15° NW 23:12:45 17° WNW 23:15:30 10° W visible
19 Dec ? 08:31:29 10° SSE 08:34:50 53° SSE 08:34:50 53° SSE visible
19 Dec ? 10:11:34 10° WSW 10:12:11 11° W 10:12:11 11° W visible
19 Dec ? 20:18:49 10° ENE 20:20:17 11° E 20:21:45 10° ESE visible
19 Dec ? 21:54:44 27° N 21:57:07 82° WNW 22:01:28 10° SSW visible
19 Dec ? 23:32:05 11° NW 23:32:38 11° NW 23:33:57 10° WNW visible
